FW7746 Weather Reports


time (UTC)temp
F
wind
direction
speed
knots
gust
knots
rain 1hr
in
rain 24hr
in
rain mn
in
humidity
%
barometer
mb
20260508135603 50 179 0.0 0.0 0.00 0.00 0.00 55 1014.3
20260508135103 50 180 0.0 0.9 0.00 0.00 0.00 54 1014.4
20260508134603 50 220 0.0 2.6 0.00 0.00 0.00 54 1014.2
20260508134103 50 211 0.0 1.7 0.00 0.00 0.00 54 1014.4
20260508133603 49 217 0.0 0.9 0.00 0.00 0.00 55 1014.4
20260508133103 49 221 0.0 1.7 0.00 0.00 0.00 55 1014.2
20260508132603 49 234 0.0 0.9 0.00 0.00 0.00 56 1014.2
20260508132103 49 255 0.0 2.6 0.00 0.00 0.00 56 1014.1
20260508131603 49 247 0.0 2.6 0.00 0.00 0.00 57 1014.2
20260508131103 49 224 0.9 7.0 0.00 0.00 0.00 57 1014.1
20260508130603 49 210 0.0 1.7 0.00 0.00 0.00 57 1014.0
20260508125604 49 139 0.0 1.7 0.00 0.00 0.00 58 1013.9
20260508125103 49 207 0.0 1.7 0.00 0.00 0.00 57 1013.8
20260508124603 49 211 0.0 0.9 0.00 0.00 0.00 57 1013.6
20260508124103 49 203 0.0 2.6 0.00 0.00 0.00 56 1013.6
20260508123603 49 183 0.0 2.6 0.00 0.00 0.00 56 1013.6
20260508122603 50 188 0.0 0.9 0.00 0.00 0.00 56 1013.6
20260508122103 50 206 0.0 2.6 0.00 0.00 0.00 55 1013.7
20260508121604 50 206 0.0 2.6 0.00 0.00 0.00 55 1013.7
20260508120603 50 180 0.0 1.7 0.00 0.00 0.00 54 1013.7
20260508120104 50 212 0.0 2.6 0.00 0.00 0.00 54 1013.8
20260508115603 51 199 0.0 0.0 0.00 0.00 0.00 54 1013.8
20260508115104 51 215 0.0 1.7 0.00 0.00 0.00 53 1013.8
20260508114103 51 211 0.0 1.7 0.00 0.00 0.00 52 1013.6
20260508113103 51 198 0.0 0.9 0.00 0.00 0.00 50 1013.5
20260508112604 51 86 0.0 1.7 0.00 0.00 0.00 50 1013.6
20260508112104 51 243 0.0 2.6 0.00 0.00 0.00 49 1013.6
20260508111603 51 126 0.0 2.6 0.00 0.00 0.00 50 1013.6
20260508111104 51 219 0.0 5.2 0.00 0.00 0.00 50 1013.6
20260508110603 51 201 0.0 5.2 0.00 0.00 0.00 49 1013.6
20260508110104 52 257 0.9 2.6 0.00 0.00 0.00 49 1013.6
20260508105103 52 189 0.0 0.9 0.00 0.00 0.00 48 1013.4
20260508104103 52 245 0.0 0.9 0.00 0.00 0.00 48 1013.4
20260508103604 52 35 0.0 2.6 0.00 0.00 0.00 47 1013.2
20260508103103 52 104 0.0 1.7 0.00 0.00 0.00 47 1013.3
20260508102603 53 185 0.0 0.0 0.00 0.00 0.00 46 1013.3
20260508101104 53 219 0.0 2.6 0.00 0.00 0.00 44 1013.3
20260508100603 54 174 0.0 1.7 0.00 0.00 0.00 43 1013.4
20260508100103 54 174 0.0 2.6 0.00 0.00 0.00 43 1013.4
20260508095105 53 202 0.0 10.4 0.00 0.00 0.00 43 1013.3
20260508094603 53 139 0.9 2.6 0.00 0.00 0.00 43 1013.3
20260508094103 53 154 0.0 2.6 0.00 0.00 0.00 42 1013.2
20260508093603 53 234 0.9 2.6 0.00 0.00 0.00 42 1013.3
20260508092604 53 226 0.0 0.0 0.00 0.00 0.00 41 1013.2
20260508091604 53 226 0.0 0.0 0.00 0.00 0.00 40 1013.3
20260508091103 54 225 0.0 1.7 0.00 0.00 0.00 40 1013.4
20260508090603 54 202 0.0 0.9 0.00 0.00 0.00 39 1013.4
20260508090103 55 160 0.0 0.0 0.00 0.00 0.00 38 1013.4
20260508085603 55 160 0.0 0.9 0.00 0.00 0.00 38 1013.4
20260508085103 55 128 0.0 1.7 0.00 0.00 0.00 37 1013.4
20260508084603 55 190 0.0 0.9 0.00 0.00 0.00 37 1013.4
20260508084103 55 223 0.0 0.0 0.00 0.00 0.00 36 1013.3
20260508083603 55 209 0.0 1.7 0.00 0.00 0.00 36 1013.3
20260508083103 56 214 0.0 4.3 0.00 0.00 0.00 35 1013.2
20260508082103 56 191 0.0 0.9 0.00 0.00 0.00 35 1013.3
20260508081603 56 148 0.0 1.7 0.00 0.00 0.00 35 1013.4
20260508081103 56 192 0.0 0.0 0.00 0.00 0.00 35 1013.3
20260508080603 56 191 0.0 0.9 0.00 0.00 0.00 36 1013.4
20260508080104 56 222 0.9 2.6 0.00 0.00 0.00 35 1013.4
20260508075603 56 210 0.0 1.7 0.00 0.00 0.00 35 1013.3
20260508075104 56 180 0.0 1.7 0.00 0.00 0.00 35 1013.3
20260508074603 56 163 0.0 0.0 0.00 0.00 0.00 35 1013.4
20260508074103 56 163 0.0 0.0 0.00 0.00 0.00 35 1013.4
20260508073604 56 153 0.0 0.0 0.00 0.00 0.00 36 1013.4
20260508073103 56 155 0.0 1.7 0.00 0.00 0.00 35 1013.4
20260508072603 56 178 0.0 0.0 0.00 0.00 0.00 35 1013.2
20260508072103 56 186 0.0 0.0 0.00 0.00 0.00 35 1013.3
20260508071603 56 196 0.0 1.7 0.00 0.00 0.00 35 1013.4
20260508071103 57 191 0.0 0.9 0.00 0.00 0.00 34 1013.3
20260508070603 57 170 0.0 0.9 0.00 0.00 0.00 34 1013.3
20260508070104 57 202 0.0 0.9 0.00 0.00 0.00 33 1013.2
20260508065604 57 215 0.9 2.6 0.00 0.00 0.00 33 1013.2
20260508065103 57 237 0.0 0.9 0.00 0.00 0.00 33 1013.2
20260508064604 57 190 0.0 0.0 0.00 0.00 0.00 32 1013.2
20260508064103 57 189 0.0 0.0 0.00 0.00 0.00 32 1013.3
20260508063603 57 190 0.0 1.7 0.00 0.00 0.00 31 1013.3
20260508063103 57 207 0.0 0.9 0.00 0.00 0.00 30 1013.3
20260508062603 57 214 0.0 1.7 0.00 0.00 0.00 29 1013.4
20260508062103 58 225 0.0 2.6 0.00 0.00 0.00 29 1013.4
20260508060603 58 227 0.0 2.6 0.00 0.00 0.00 29 1013.3
20260508060103 58 154 0.0 1.7 0.00 0.00 0.00 29 1013.3
20260508055104 58 161 0.0 0.0 0.00 0.00 0.00 28 1013.2
20260508054603 58 162 0.0 0.9 0.00 0.00 0.00 28 1013.2
20260508054103 59 179 0.0 0.0 0.00 0.00 0.00 28 1013.3
20260508053604 59 173 0.0 0.0 0.00 0.00 0.00 28 1013.3
20260508053103 59 159 0.0 0.0 0.00 0.00 0.00 28 1013.2
20260508052603 59 156 0.0 2.6 0.00 0.00 0.00 28 1013.2
20260508052103 60 173 0.0 1.7 0.00 0.00 0.00 28 1013.1
20260508051603 60 178 0.0 0.9 0.00 0.00 0.00 28 1013.1
20260508051104 60 197 0.0 0.9 0.00 0.00 0.00 28 1013.0
20260508050104 60 204 0.0 0.0 0.00 0.00 0.00 28 1013.1
20260508045604 61 206 0.0 0.0 0.00 0.00 0.00 29 1013.1
20260508045103 61 206 0.0 0.0 0.00 0.00 0.00 28 1013.1
20260508044603 61 206 0.0 0.0 0.00 0.00 0.00 28 1013.1
20260508044104 61 206 0.0 0.0 0.00 0.00 0.00 28 1013.1
20260508043603 62 206 0.0 0.0 0.00 0.00 0.00 27 1013.2
20260508043104 62 207 0.0 0.0 0.00 0.00 0.00 27 1013.1
20260508042605 62 207 0.0 0.0 0.00 0.00 0.00 27 1013.0
20260508042103 62 207 0.0 0.0 0.00 0.00 0.00 26 1012.9
20260508041603 62 209 0.0 0.0 0.00 0.00 0.00 26 1012.8
20260508040603 63 212 0.0 0.0 0.00 0.00 0.00 26 1012.7
20260508040104 63 212 0.0 0.0 0.00 0.00 0.00 26 1012.7
20260508035603 64 246 0.0 0.0 0.00 0.00 0.00 25 1012.6
20260508035103 64 246 0.0 0.0 0.00 0.00 0.00 25 1012.5
20260508034603 64 246 0.0 0.0 0.00 0.00 0.00 25 1012.5
20260508034103 65 246 0.0 1.7 0.00 0.00 0.00 25 1012.4
20260508033603 65 218 0.0 0.0 0.00 0.00 0.00 25 1012.5
20260508033103 65 218 0.0 0.0 0.00 0.00 0.00 25 1012.4
20260508032603 65 218 0.0 0.0 0.00 0.00 0.00 24 1012.4
20260508032104 66 218 0.0 0.0 0.00 0.00 0.00 23 1012.3
20260508031604 66 219 0.0 0.0 0.00 0.00 0.00 23 1012.2
20260508031103 66 220 0.0 1.7 0.00 0.00 0.00 22 1012.2
20260508030604 67 226 0.0 2.6 0.00 0.00 0.00 22 1012.1
20260508030104 67 167 0.0 2.6 0.00 0.00 0.00 22 1012.1
20260508025604 68 245 0.9 7.8 0.00 0.00 0.00 21 1012.0
20260508025103 68 252 0.0 2.6 0.00 0.00 0.00 22 1012.1
20260508024603 68 261 0.0 0.9 0.00 0.00 0.00 21 1011.9
20260508024104 69 222 0.0 2.6 0.00 0.00 0.00 22 1011.9
20260508023603 69 251 0.0 0.9 0.00 0.00 0.00 22 1012.0
20260508022603 70 220 0.0 0.0 0.00 0.00 0.00 24 1012.0
20260508022104 70 263 0.0 0.0 0.00 0.00 0.00 24 1011.8
20260508021603 70 245 0.0 0.0 0.00 0.00 0.00 24 1011.8
20260508021104 71 245 0.0 0.9 0.00 0.00 0.00 23 1011.8
20260508020603 71 237 0.0 1.7 0.00 0.00 0.00 23 1011.8
20260508015603 72 226 0.0 2.6 0.00 0.00 0.00 22 1011.9
20260508015104 72 224 0.0 2.6 0.00 0.00 0.00 22 1011.9
20260508014603 73 337 0.0 1.7 0.00 0.00 0.00 22 1012.0
20260508014103 73 137 0.0 2.6 0.00 0.00 0.00 21 1011.9
20260508013603 74 216 0.9 2.6 0.00 0.00 0.00 22 1011.8
20260508013103 74 260 0.0 2.6 0.00 0.00 0.00 23 1011.8
20260508012603 74 206 0.9 5.2 0.00 0.00 0.00 22 1011.8
20260508012103 74 226 0.9 6.1 0.00 0.00 0.00 23 1011.8
20260508011604 74 239 0.9 4.3 0.00 0.00 0.00 23 1011.7
20260508011103 75 300 0.0 2.6 0.00 0.00 0.00 24 1011.8
20260508010603 75 249 0.9 6.1 0.00 0.00 0.00 24 1011.7
20260508005603 76 229 1.7 6.1 0.00 0.00 0.00 24 1011.7
20260508004603 76 230 1.7 7.0 0.00 0.00 0.00 24 1011.8
20260508003604 77 252 0.9 7.0 0.00 0.00 0.00 23 1011.7
20260508003103 77 183 0.0 8.7 0.00 0.00 0.00 23 1011.7
20260508001603 76 257 0.9 7.0 0.00 0.00 0.00 24 1011.6
20260508001104 77 190 1.7 11.3 0.00 0.00 0.00 24 1011.6
20260508000604 78 270 1.7 8.7 0.00 0.00 0.00 24 1011.4
20260507235603 79 200 0.9 13.9 0.00 0.00 0.00 23 1011.3
20260507235103 79 226 0.0 7.0 0.00 0.00 0.00 22 1011.2
20260507234104 79 238 0.9 2.6 0.00 0.00 0.00 21 1011.3
20260507233603 80 235 0.9 7.0 0.00 0.00 0.00 20 1011.3
20260507233103 80 234 0.9 7.0 0.00 0.00 0.00 19 1011.3
20260507232603 80 145 0.0 2.6 0.00 0.00 0.00 19 1011.2
20260507232103 80 209 0.9 2.6 0.00 0.00 0.00 19 1011.3
20260507231603 80 243 0.9 2.6 0.00 0.00 0.00 19 1011.3
20260507231103 80 255 0.9 2.6 0.00 0.00 0.00 19 1011.2
20260507230603 79 338 0.0 0.0 0.00 0.00 0.00 21 1011.2
20260507230104 78 329 0.0 1.7 0.00 0.00 0.00 21 1011.4
20260507225604 78 61 0.9 2.6 0.00 0.00 0.00 20 1011.4
20260507225103 78 331 0.9 1.7 0.00 0.00 0.00 21 1011.4
20260507224604 77 336 0.0 4.3 0.00 0.00 0.00 21 1011.6
20260507224103 77 313 0.9 4.3 0.00 0.00 0.00 21 1011.5
20260507223603 77 307 0.9 7.8 0.00 0.00 0.00 21 1011.6
20260507223103 77 331 0.9 2.6 0.00 0.00 0.00 21 1011.5
20260507222604 77 325 1.7 2.6 0.00 0.00 0.00 21 1011.6
20260507222104 77 229 0.0 2.6 0.00 0.00 0.00 21 1011.6
20260507221604 77 332 1.7 5.2 0.00 0.00 0.00 20 1011.7
20260507221103 78 280 0.0 4.3 0.00 0.00 0.00 20 1011.8
20260507220603 78 320 2.6 7.8 0.00 0.00 0.00 20 1011.8
20260507215104 79 323 1.7 7.8 0.00 0.00 0.00 20 1011.7
20260507214604 79 172 0.9 2.6 0.00 0.00 0.00 20 1011.8
20260507214104 78 327 0.9 2.6 0.00 0.00 0.00 21 1011.8
20260507213604 78 345 1.7 7.8 0.00 0.00 0.00 21 1011.8
20260507213104 78 326 0.0 4.3 0.00 0.00 0.00 22 1011.6
20260507211603 79 321 1.7 2.6 0.00 0.00 0.00 21 1012.0
20260507211104 79 330 0.9 2.6 0.00 0.00 0.00 22 1012.2
20260507210603 79 301 0.9 2.6 0.00 0.00 0.00 22 1012.2
20260507210104 79 250 0.0 1.7 0.00 0.00 0.00 21 1012.2
20260507205603 79 249 0.9 4.3 0.00 0.00 0.00 21 1012.2
20260507205103 79 294 0.0 1.7 0.00 0.00 0.00 22 1012.3
20260507204104 77 287 0.0 0.9 0.00 0.00 0.00 22 1012.5
20260507202604 76 341 0.9 1.7 0.00 0.00 0.00 24 1012.7
20260507202103 76 322 0.9 2.6 0.00 0.00 0.00 25 1012.6
20260507201603 75 276 0.0 2.6 0.00 0.00 0.00 25 1012.6
20260507201103 74 324 0.0 2.6 0.00 0.00 0.00 25 1012.7
20260507200603 74 325 1.7 5.2 0.00 0.00 0.00 26 1012.7
20260507200104 74 327 2.6 8.7 0.00 0.00 0.00 25 1012.7
20260507195604 74 324 0.9 7.0 0.00 0.00 0.00 25 1012.8
20260507195104 74 324 2.6 8.7 0.00 0.00 0.00 26 1012.8
20260507194603 75 305 1.7 4.3 0.00 0.00 0.00 26 1012.8
20260507194104 74 325 0.9 6.1 0.00 0.00 0.00 26 1013.0
20260507193604 74 326 2.6 7.8 0.00 0.00 0.00 27 1012.9
20260507192604 75 333 1.7 5.2 0.00 0.00 0.00 24 1013.0
20260507192103 76 325 0.9 2.6 0.00 0.00 0.00 24 1013.0
20260507191603 75 319 0.9 4.3 0.00 0.00 0.00 25 1013.1
20260507191103 75 67 0.0 0.9 0.00 0.00 0.00 26 1013.2
20260507190603 75 71 0.0 1.7 0.00 0.00 0.00 25 1013.3
20260507190104 74 92 0.9 4.3 0.00 0.00 0.00 25 1013.2
20260507185603 74 312 0.9 2.6 0.00 0.00 0.00 25 1013.2
20260507185103 74 210 0.9 7.0 0.00 0.00 0.00 26 1013.2
20260507184603 75 328 1.7 7.8 0.00 0.00 0.00 25 1013.1
20260507183604 75 216 0.9 7.0 0.00 0.00 0.00 24 1013.1
20260507183103 75 42 0.0 2.6 0.00 0.00 0.00 22 1013.1
20260507182604 75 102 0.0 2.6 0.00 0.00 0.00 23 1013.3
20260507182103 74 57 0.9 4.3 0.00 0.00 0.00 22 1013.3
20260507181103 73 93 0.0 0.0 0.00 0.00 0.00 23 1013.5
20260507180603 73 83 0.0 2.6 0.00 0.00 0.00 24 1013.6
20260507175604 72 86 0.0 2.6 0.00 0.00 0.00 26 1013.7
20260507175104 72 206 0.0 2.6 0.00 0.00 0.00 27 1013.8
20260507174103 71 162 0.0 0.9 0.00 0.00 0.00 28 1013.8
20260507173603 71 163 0.0 2.6 0.00 0.00 0.00 28 1013.9
20260507173104 70 151 0.0 2.6 0.00 0.00 0.00 29 1014.1
20260507172604 70 98 0.9 4.3 0.00 0.00 0.00 28 1014.2
20260507172103 69 83 0.0 0.0 0.00 0.00 0.00 29 1014.2
20260507171603 69 77 0.0 2.6 0.00 0.00 0.00 31 1014.2
20260507171104 68 355 0.0 1.7 0.00 0.00 0.00 33 1014.3
20260507170604 67 268 0.0 0.0 0.00 0.00 0.00 34 1014.3
20260507170104 67 269 0.0 0.0 0.00 0.00 0.00 34 1014.3
20260507165603 67 269 0.0 0.0 0.00 0.00 0.00 34 1014.3
20260507165104 67 269 0.0 2.6 0.00 0.00 0.00 34 1014.3
20260507164604 67 336 0.0 1.7 0.00 0.00 0.00 35 1014.3
20260507164104 66 294 0.0 2.6 0.00 0.00 0.00 36 1014.3
20260507163103 66 178 0.0 1.7 0.00 0.00 0.00 37 1014.3
20260507162603 65 159 0.9 4.3 0.00 0.00 0.00 37 1014.4
20260507162104 65 137 0.0 0.9 0.00 0.00 0.00 38 1014.3
20260507161603 64 87 0.0 0.9 0.00 0.00 0.00 37 1014.3
20260507160603 63 143 0.0 2.6 0.00 0.00 0.00 40 1014.3
20260507160104 63 214 0.0 2.6 0.00 0.00 0.00 40 1014.4
20260507155604 63 225 0.0 2.6 0.00 0.00 0.00 40 1014.3
20260507155103 63 246 0.9 4.3 0.00 0.00 0.00 41 1014.5
20260507154603 62 232 0.9 2.6 0.00 0.00 0.00 41 1014.5
20260507154105 62 227 0.0 5.2 0.00 0.00 0.00 42 1014.4
20260507153603 62 257 0.9 4.3 0.00 0.00 0.00 42 1014.4
20260507153103 62 206 0.0 0.9 0.00 0.00 0.00 43 1014.4
20260507152604 61 175 0.0 1.7 0.00 0.00 0.00 43 1014.4
20260507152103 61 236 0.0 0.0 0.00 0.00 0.00 45 1014.5
20260507151603 60 236 0.0 0.0 0.00 0.00 0.00 46 1014.5
20260507151104 60 236 0.0 1.7 0.00 0.00 0.00 46 1014.5
20260507150603 60 238 0.0 2.6 0.00 0.00 0.00 47 1014.5
20260507150103 59 247 0.9 2.6 0.00 0.00 0.00 46 1014.5
20260507145604 59 214 0.0 2.6 0.00 0.00 0.00 49 1014.4
20260507145103 58 224 0.0 1.7 0.00 0.00 0.00 50 1014.4
20260507144603 58 232 0.0 1.7 0.00 0.00 0.00 50 1014.5
20260507144104 57 238 0.0 1.7 0.00 0.00 0.00 51 1014.5
20260507143603 57 238 0.9 2.6 0.00 0.00 0.00 52 1014.5
20260507143103 56 242 0.9 5.2 0.00 0.00 0.00 55 1014.5
20260507142103 55 246 0.0 2.6 0.00 0.00 0.00 57 1014.3
20260507141603 55 246 0.0 4.3 0.00 0.00 0.00 58 1014.2
20260507140603 54 243 0.9 2.6 0.00 0.00 0.00 58 1014.2
20260507140103 54 207 0.0 2.6 0.00 0.00 0.00 58 1014.2